Regional Weather Roundup
Issued by NWS Newport/Morehead, NC

Current Version | Previous Version | Text Only | Print | Product List | Glossary On
Versions: 1 2 3 4 5 6 7 8 9 10 11 12 13 14 15 16 17 18 19 20 21 22 23 24 25 26 27 28 29 30 31 32 33 34 35 36 37 38 39 40 41 42 43 44 45 46 47 48 49 50
000 ASUS42 KMHX 221025 RWRMHX WEATHER ROUNDUP FOR EASTERN NORTH CAROLINA NATIONAL WEATHER SERVICE NEWPORT/MOREHEAD CITY NC 600 AM EDT FRI MAY 22 2015 NOTE: "FAIR" INDICATES FEW OR NO CLOUDS BELOW 12,000 FEET WITH NO SIGNIFICANT WEATHER AND/OR OBSTRUCTIONS TO VISIBILITY NCZ015>017-031-032-045>047-102-103-221100- NORTH COAST CITY SKY/WX TMP DP RH WIND PRES REMARKS EDENTON CLEAR 55 52 89 NW7 30.07R ELIZABETH CITY PTCLDY 54 50 86 NW10 30.04R KITTY HAWK PTSUNNY 58 53 81 NW7 30.01R MANTEO MOCLDY 58 51 79 N13 30.05R $$ NCZ045>047-081-094-103-104-221100- CENTRAL COAST CITY SKY/WX TMP DP RH WIND PRES REMARKS FRISCO CLOUDY 60 54 80 N8 30.02R SWANQUARTER N/A 57 N/A N/A N8 30.03R $$ NCZ095-097-098-100-101-221100- SOUTHERN COAST CITY SKY/WX TMP DP RH WIND PRES REMARKS BEAUFORT CLOUDY 59 56 89 N8 30.03R CEDAR ISLAND N/A 63 N/A N/A N15G25 30.09R JACKSONVILLE CLOUDY 60 56 86 N10 30.04R PINEY ISLAND CLOUDY N/A N/A N/A N13 30.04R WILMINGTON MOCLDY 60 56 86 N7 30.04R $$ NCZ011>013-027>030-043-044-078>080-089-090>093-098-221100- COASTAL PLAIN CITY SKY/WX TMP DP RH WIND PRES REMARKS AHOSKIE PTCLDY 53 51 94 CALM 30.08R CLINTON PTCLDY 60 55 85 N6 30.07R ELIZABETHTOWN CLOUDY 60 56 86 CALM 30.07R GOLDSBORO MOCLDY 59 55 87 N3 30.05R GREENVILLE MOCLDY 55 54 94 N5 30.08R HAVELOCK MOCLDY 60 53 77 N14G20 30.05R KENANSVILLE MOCLDY 58 55 88 N5 30.06R KINSTON PTCLDY 58 55 92 N6 30.07R NEW BERN CLOUDY 59 54 83 N9 30.06R RICHLANDS CLOUDY 57 52 82 N5 30.07R ROCKY MOUNT CLOUDY 57 55 93 NW6 30.08R WASHINGTON PTCLDY N/A N/A N/A N5 30.08R WHITEVILLE CLOUDY 62 56 79 N5 30.05R $$ AMZ130-135-150-152-154-156-158-170-250-252-270-ANZ085-086-088-633-658-670-221100- MARINE OBSERVATIONS STATION/POSITION TIME TEMP WIND PRES WAVE SWELL AIR SEA DIR/SP/G HT/PER HT/PER (UTC) (F) (DEG/KT/KT) (MB) (FT/S) (FT/S) CHESAPEAKE LIGHT 1000 58 330/ 27/ 28 1016.5 64 E VA BEACH 0950 58 60 340/ 21/ 27 1014.7 7/ 7 2/11 DUCK 1000 58 66 310/ 14/ 17 1015.9 2 E DUCK 0911 64 N/A 5/ 6 OREGON INLET 1000 59 68 320/ 12/ 16 1016.8 13E OREGON INLT 1000 60 N/A 7/ 7 HATTERAS CG 1000 62 72 340/ 17/ 19 1016.1 DIAMOND BUOY 0950 64 76 330/ 17/ 19 1015.8 4/ 7 2/11 CAPE LOOKOUT 1000 60 350/ 14/ 16 1016.6 BEAUFORT LAB 1000 60 74 360/ 10/ 13 1016.2 27 SE WRIGHTSVLE 1000 62 77 30/ 17/ 19 N/A 5 SE WRIGHTSVLE 0908 64 76 10/ 14/ 19 1016.4 225 S CAPE HAT 0950 75 74 240/ 10/ 12 1015.0 4/ 6 3/ 6 41 SE CHARLESTON 0950 72 76 40/ 23/ 27 1014.3 5/ 4 2/ 8 $$

USA.gov is the U.S. government's official web portal to all federal, state and local government web resources and services.